Terminal Aerodrome Forecast
Issued by NWS

Home | Current Version | Previous Version | Graphics & Text | Print | Product List | Glossary On
Versions: 1 2 3 4 5 6 7 8 9 10 11 12 13 14 15 16
000
FTUS43 KBIS 161000 AAA
TAFJMS
TAF AMD
KJMS 161011Z 1610/1706 08020G26KT P6SM OVC009
      TEMPO 1610/1614 5SM -SN BR BKN009 OVC015
     FM161400 07024G32KT 3SM -SN OVC015
     FM162000 04020G26KT P6SM BKN025 OVC035
     FM170200 03013KT P6SM BKN035=

USA.gov is the U.S. government's official web portal to all federal, state and local government web resources and services.